Location: Al Ba?al?yah
(25.1044°N, 32.7916°E)
Time: 06:21:09
(UTC+00:00)

Daily predictions for brighter satellites

Satellite Brightness Start Highest point End
(mag) Time Altitude Azimuth Time Altitude Azimuth Time Altitude Azimuth
YAOGAN 1 2.5 16:46:12 10° SSE 16:50:29 74° ENE 16:54:47 10° N
CZ-3A R/B 2.5 16:50:43 10° W 16:53:46 86° S 17:04:05 10° E
Cosmos 2285 Rocket 4.3 16:48:54 10° N 16:55:09 52° ENE 17:01:20 10° SSE
IRIDIUM 104 4.3 16:50:03 10° N 16:55:15 70° E 17:00:25 10° S
HJ-1C 3.3 16:53:08 10° S 16:56:16 86° WSW 16:59:26 10° NNW
CZ-4B R/B 3.8 16:52:38 10° S 16:57:49 58° WSW 17:03:04 10° NNW
Cosmos 1725 Rocket 4.5 16:54:47 10° SSE 17:00:33 40° E 17:06:22 10° NNE
CZ-4C R/B 3.1 17:00:09 10° N 17:03:14 68° WNW 17:06:16 10° SSW
Feng Yun 1-1 Rocket 4.2 16:58:24 10° SSE 17:04:02 81° ENE 17:09:33 10° N
IRIDIUM 114 4.4 16:59:10 10° N 17:04:23 89° ENE 17:09:36 10° S
Aurora 2 Rocket 2.2 17:01:49 10° W 17:05:42 55° SSW 17:08:32 12° ESE
Cosmos 1850 Rocket 4.1 17:00:31 10° SSW 17:05:48 88° WNW 17:11:10 10° NNE
NOSS 3-4 (A) 4.3 17:02:07 10° SSE 17:06:22 22° ESE 17:10:39 10° ENE
NOSS 3-4 (C) 4.3 17:02:12 10° SSE 17:06:27 22° ESE 17:10:44 10° ENE
Cosmos 1933 3.3 17:02:32 10° S 17:06:34 79° E 17:10:37 10° N
deb Chang Zheng 4 3.7 17:04:21 10° SSE 17:08:21 51° ENE 17:12:21 10° N
Cosmos 2221 4.3 17:06:14 10° SSW 17:10:14 36° W 17:14:14 10° NNW
OBJECT-B 1.0 17:08:07 10° SSE 17:10:55 42° ENE 17:13:42 10° N
SJ-6B 3.8 17:11:30 12° SE 17:14:31 28° ENE 17:17:50 10° NNE
Tiangong 1.3 17:11:22 10° WNW 17:14:32 67° SW 17:17:00 15° SE
Meteor 1-26 Rocket 4.3 17:11:19 10° S 17:17:09 70° E 17:22:49 10° NNE
GPS 2-17 Rocket1 3.8 17:14:13 10° WSW 17:18:41 40° S 17:21:59 16° SE
Cosmos 540 Rocket 4.2 17:20:07 10° N 17:24:45 34° ENE 17:27:55 18° SE
Meteor 1-20 Rocket 4.1 17:20:23 10° N 17:25:58 78° E 17:31:27 10° S
Cosmos 1782 2.9 17:22:16 10° S 17:26:11 76° W 17:30:06 10° N
Cosmos 1812 2.6 17:23:33 10° S 17:27:20 73° E 17:31:07 10° N
Cosmos 2098 Rocket 3.4 17:25:24 10° NNE 17:27:54 22° E 17:28:20 22° E
Cosmos 1408 Rocket 3.6 17:27:03 10° N 17:31:24 77° W 17:35:42 10° S
Delta 2 Rocket 4.4 17:27:54 10° W 17:34:45 81° N 17:42:20 13° E
USA 186 1.1 17:33:38 25° SSE 17:35:00 76° ENE 17:37:31 10° N
H-2A R/B 2.6 17:32:22 15° SSE 17:36:04 65° ENE 17:40:25 10° N
Cosmos 1500 Rocket 3.5 17:38:35 10° N 17:42:58 79° E 17:46:21 17° S
USA 129 2.7 17:43:25 38° NE 17:43:25 38° NE 17:45:28 10° N
Cosmos 1602 4.0 17:41:13 10° NNW 17:44:59 65° W 17:48:20 13° S
X-37B 2.5 17:45:39 10° N 17:47:31 16° NNE 17:47:52 16° NE
Sakura Rocket 3.1 17:42:58 10° WNW 17:47:57 68° N 17:49:56 29° E
Cosmos 2016 Rocket 4.5 17:42:03 10° SSW 17:48:16 64° W 17:54:35 10° N
ATLAS 5 CENTAUR R/B 3.0 17:42:42 10° NW 17:48:53 62° WSW 17:55:02 14° SSE
OE (NEXTSAT) 4.3 17:46:04 10° SSW 17:49:15 48° SE 17:49:15 48° SE
Cosmos 968 Rocket 3.5 17:44:23 10° S 17:49:28 58° ESE 17:54:31 10° NNE
ASTRO E2 3.4 17:46:05 10° W 17:49:52 50° NNW 17:52:48 16° ENE
Centaur AC-72 3.4 17:44:57 10° W 17:51:03 41° SSW 17:54:13 25° SE
SL-27 R/B 2.4 17:49:51 10° N 17:53:06 53° ENE 17:53:23 51° E
ARGOS Delta rocket 4.4 17:48:16 10° NNE 17:53:29 44° E 17:55:58 27° SSE
Cosmos 1328 Rocket 4.2 17:53:42 32° E 17:53:45 32° E 17:57:34 10° NNE
Spot 2 3.9 17:52:13 23° S 17:54:47 84° WSW 17:58:51 10° NNW
H-2A R/B 2.2 17:52:45 10° N 17:56:49 68° WNW 18:00:53 10° SSW
SWIFT 4.1 17:54:14 10° SSW 17:56:06 18° S 17:56:06 18° S
Resurs 1-3 3.5 17:56:34 35° SSE 17:58:15 66° ENE 18:02:36 10° N
Cosmos 2233 Rocket 3.9 17:52:16 10° S 17:58:34 85° E 18:04:55 10° N
Cosmos 1763 Rocket 4.2 17:54:44 10° NNW 17:59:48 51° WSW 18:04:12 14° S
CZ-4B R/B 1.1 18:00:36 10° N 18:03:47 90° WNW 18:04:00 76° SSW
CENTAUR R/B 4.0 17:56:23 10° N 18:04:17 37° ENE 18:08:15 26° E
MetOp-A 3.7 18:02:54 27° S 18:05:14 71° WSW 18:09:20 10° NNW
Ariane Rocket 4.0 18:06:41 28° ENE 18:06:59 29° ENE 18:11:17 10° NNE
GPS 2-14 Rocket1 4.2 18:04:09 10° WSW 18:06:36 22° SSW 18:06:36 22° SSW
IGS 5A 3.6 18:11:05 40° S 18:12:28 71° WSW 18:16:36 10° NNW
Resurs 01 Rocket 2.1 18:13:02 42° ENE 18:13:02 42° ENE 18:17:06 10° N
CSL-04 Rocket 4.5 18:09:41 13° S 18:14:06 46° W 18:19:09 10° NNW
Cosmos 2227 Rocket 4.2 18:12:27 10° NE 18:14:52 13° ENE 18:14:52 13° ENE
Cosmos 1656 4.3 18:10:01 10° SSW 18:15:30 56° WNW 18:20:58 10° N
Meteor 1-10 Rocket 4.1 18:13:31 34° S 18:15:59 70° E 18:21:29 10° NNE
Cosmos 1400 Rocket 3.5 18:12:34 10° NNW 18:16:19 50° W 18:17:36 34° SSW
Cosmos 1980 Rocket 4.0 18:20:04 16° ENE 18:20:04 16° ENE 18:21:31 10° NE
Cosmos 1544 4.0 18:17:17 10° N 18:19:40 38° NNE 18:19:40 38° NNE
COBE Rocket 4.3 18:20:54 30° S 18:23:23 62° W 18:28:27 10° NNW
Meteor 1-14 Rocket 4.2 18:18:00 10° N 18:23:55 80° E 18:25:35 48° SSE
Cosmos 2360 4.1 18:22:17 42° S 18:24:06 66° ESE 18:29:43 10° NNE
Cosmos 1666 Rocket 4.1 18:20:22 10° N 18:23:57 45° NE 18:23:57 45° NE
Cosmos 1805 Rocket 4.4 18:21:50 10° NNW 18:26:06 48° W 18:27:44 32° SW
Meteor 1-27 Rocket 3.8 18:29:56 54° E 18:29:58 54° E 18:35:34 10° NNE
Cosmos 1151 Rocket 4.1 18:27:40 22° SW 18:30:05 43° W 18:34:10 10° N
Landsat 7 4.0 18:29:18 51° SSW 18:30:20 67° W 18:35:01 10° NNW
Cosmos 1486 Rocket 3.8 18:36:30 76° ESE 18:36:37 77° ESE 18:41:54 10° NNE
Cosmos 1666 4.4 18:33:43 10° NNW 18:36:59 28° W 18:37:44 26° WSW
Cosmos 1633 Rocket 3.9 18:33:18 10° N 18:36:22 41° NNE 18:36:22 41° NNE
Cosmos 1697 Rocket 2.6 18:35:17 32° SSW 18:38:03 84° WNW 18:43:44 10° NNE
Delta 2 Rocket 4.3 18:37:04 10° NW 18:39:41 39° NNW 18:39:41 39° NNW
USA 215 3.1 18:36:16 10° NE 18:42:47 66° SE 18:49:17 10° SSW
Meteor 1-5 Rocket 4.5 18:37:34 10° NNW 18:42:48 58° W 18:44:03 46° SW
Cosmos 44 4.5 18:40:46 10° N 18:43:19 28° NNE 18:43:19 28° NNE
Milstar 3 Cent rocket 3.4 18:29:25 10° WNW 18:45:43 86° SSW 18:48:31 50° ESE
IRS-1A Rocket 4.2 18:46:32 68° SSW 18:47:12 79° WSW 18:52:52 10° NNW
Meteor 1-11 Rocket 4.2 18:44:24 10° N 18:49:28 49° NE 18:49:28 49° NE
BREEZE-M DEB (TANK) 3.9 18:46:49 10° NW 18:50:35 61° NE 18:50:38 61° NE
Cosmos 1814 Rocket 4.0 18:45:43 10° NNW 18:50:22 74° NNW 18:50:22 74° NNW
ATLAS 2AS CENTAUR R/B 3.3 18:52:51 47° E 18:52:51 47° E 18:59:01 10° NE
Cosmos 1072 Rocket 4.2 18:51:27 78° SSE 18:51:50 84° E 18:57:56 10° N
Cosmos 1315 Rocket 4.2 18:48:11 10° N 18:50:39 36° NNW 18:50:39 36° NNW
Cosmos 2297 Rocket 2.8 18:47:33 10° N 18:52:09 44° NE 18:52:09 44° NE
SPOT 1/Viking Rocket 3.6 18:55:14 75° WNW 18:55:14 75° WNW 19:00:10 10° NNW
Cosmos 2344 4.0 19:04:40 10° SW 19:12:45 57° WNW 19:19:58 10° NNE
NOSS 3-2 (A) 4.2 19:06:59 10° NNW 19:15:13 74° WSW 19:16:39 63° S
Cosmos 2034 Rocket 4.3 19:20:22 61° N 19:20:22 61° N 19:25:28 10° N
SPOT 5 4.3 19:23:56 35° N 19:23:56 35° N 19:27:02 10° N
Cosmos 2219 4.3 19:18:31 10° N 19:21:59 35° NNE 19:21:59 35° NNE
NOSS 3-2 (C) 4.1 19:22:31 10° NNW 19:30:47 82° ENE 19:30:57 82° E
Terra 4.1 19:51:03 20° N 19:51:03 20° N 19:52:28 10° N
USA 238 DEB 4.2 19:43:20 10° NNW 19:49:49 65° WNW 19:49:49 65° WNW
USA 238 4.2 19:43:26 10° NNW 19:49:54 65° WNW 19:49:54 65° WNW
CENTAUR R/B 3.8 19:46:52 10° NW 19:55:11 46° WSW 19:55:27 46° WSW
Cosmos 2227 Rocket 3.7 19:53:42 10° NNW 19:56:42 32° NW 19:56:42 32° NW
Cosmos 1980 Rocket 3.9 20:01:44 28° NW 20:01:44 28° NW 20:05:40 10° N
H-2A ROCKET BODY 4.4 20:57:30 10° WNW 21:18:09 50° W 21:18:09 50° W
ATLAS 3B R/B 4.3 21:24:51 10° NNW 21:29:10 32° NNE 21:29:10 32° NNE
SL-16 R/B 4.1 23:09:57 28° ENE 23:09:57 28° ENE 23:14:39 10° NNE
CZ-2D R/B 4.3 23:04:22 10° NNE 23:06:07 21° NNE 23:06:07 21° NNE
Lacrosse 5 4.3 23:26:29 19° NE 23:26:29 19° NE 23:27:55 10° NE
Cosmos 2278 Rocket 4.0 23:18:10 10° N 23:21:39 27° NE 23:21:39 27° NE
NOSS 3-1 (C) 4.4 23:15:55 10° NNW 23:23:32 70° NNE 23:23:32 70° NNE
SL-16 R/B 4.0 23:29:10 27° ENE 23:29:10 27° ENE 23:32:02 10° NE
Resurs 1-4 Rocket 4.1 23:47:34 10° N 23:49:28 21° NNW 23:49:28 21° NNW
